Location: Moena
(46.3667°N, 11.6500°E)
Time: 13:51:15
(UTC+00:00)

Helios 1A Rocket - Pass Details

Date: 03 March 2021
Orbit: 563 x 585 km, 98.3° (Epoch: 18 April)

Event Time Altitude Azimuth Distance (km) Brightness Sun altitude
Rises 17:37:29 0° 145° (SE) 2,768 6.1 -6.8°
Reaches altitude 10° 17:39:43 10° 137° (SE) 1,872 5.1 -7.2°
Maximum altitude 17:43:28 38° 69° (ENE) 888 3.4 -7.9°
Drops below altitude 10° 17:47:13 10° 2° (N) 1,875 5.5 -8.5°
Sets 17:49:27 0° 354° (N) 2,775 6.5 -8.9°
